User: anonymous   Login
Location: Unspecified
(0.0000°N, 0.0000°E)
Time: 10:20:25
(UTC+02:00)
Language:

PAS 1R - Orbit

View from above orbital plane
View from above orbital plane
View from above satellite
View from above satellite

Ground track
Ground track

The orbit data is extracted from the following two-line orbital elements,

1 26608U 00072A   18173.89040074 -.00000149 +00000-0 +00000-0 0  9998
2 26608 001.0979 092.3194 0001811 328.3117 328.0290 01.00271677012079
Epoch (UTC): 22 June 2018 21:22:10
Eccentricity: 0.0001811
inclination: 1.0979°
perigee height: 35778 km
apogee height: 35794 km
right ascension of ascending node: 92.3194°
argument of perigee: 328.3117°
revolutions per day: 1.00271677
mean anomaly at epoch: 328.0290°
orbit number at epoch: 1207

The dashed part of the orbit path shows where the satellite is in the earth's shadow,  

DLR